OpenBCM V1.08-5-g2f4a (Linux)

Packet Radio Mailbox

IZ3LSV

[San Dona' di P. JN]

 Login: GUEST





  
I0OJJ  > KEPS     04.06.25 02:44l 357 Lines 16944 Bytes #74 (0) @ AMSAT
BID : ORB25155.1
Read: GUEST
Subj: 2Line Orbital Elements 25155.AMSAT
Path: IZ3LSV<IK6IHL<IK7NXU<HB9ON<DK0WUE<PD0LPM<PI8ZTM<IR0AAB<I0OJJ<I0OJJ
Sent: 250604/0025z @:I0OJJ.ITA.EU [Rome] obcm1.08-10-g596e

>From i0ojj%i0ojj.ita.eu@i0ojj.ampr.org Wed Jun  4 02:25:07 2025
Received: from i0ojj.ampr.org by i0ojj.ampr.org (JNOS2.0p.8) with SMTP
	id AA17032751 ; Wed, 04 Jun 2025 02:25:07 +0200
Message-Id: <ORB25155.1@i0ojj.bbs>
>From: i0ojj@i0ojj.ita.eu
X-JNOS-User-Port: Telnet   (i0ojj @ 44.134.109.10)  -> Sending message

From: I0OJJ @ I0OJJ.ITA.EU (Gustavo)
To:   KEPS @ AMSAT
X-Info: This message was generated automatically


QST de W1STR

AMSAT Orbital Elements for Amateur Satellites in TLE Format
>From Orbital Analysis Office
New England Sci-Tech STEM Education Center
Natick, MA June 04, 2025
To all radio amateurs


These element sets describe the orbits of various satellites 
in use by the amateur radio community. For details see:
www.amsat.org/keplerian-elements-formats/

A daily update of element sets is available at:
www.amsat.org/tle/daily-bulletin.txt
or without bulletin text:
www.amsat.org/tle/dailytle.txt


AO-07
1 07530U 74089B   25154.59426006 -.00000031  00000-0  94635-4 0  9998
2 07530 101.9929 158.7948 0012541 132.3891 348.1249 12.53689422313077
UO-11
1 14781U 84021B   25154.89049248  .00001697  00000-0  18440-3 0  9990
2 14781  97.7540 121.3717 0007920   7.6071 352.5265 14.89374540221790
AO-27
1 22825U 93061C   25154.76317786  .00000196  00000-0  91757-4 0  9999
2 22825  98.7369 216.2898 0009380 125.9797 234.2257 14.30798043653153
FO-29
1 24278U 96046B   25154.61572755  .00000022  00000-0  59559-4 0  9994
2 24278  98.5768  49.2916 0349967 358.2587   1.7311 13.53248855421964
NOAA-15
1 25338U 98030A   25154.85143841  .00000262  00000-0  12514-3 0  9998
2 25338  98.5350 180.1207 0010607  23.2099 336.9559 14.26976545407584
GO-32
1 25397U 98043D   25154.50998318  .00000139  00000-0  80479-4 0  9995
2 25397  98.9699 133.5027 0000869 169.9134 190.2062 14.24313986397421
ISS
1 25544U 98067A   25154.85373000  .00013264  00000-0  24009-3 0  9997
2 25544  51.6371  13.1486 0001725 186.6562 173.4404 15.49988984513093
NO-44
1 26931U 01043C   25154.35873661  .00000242  00000-0  12152-3 0  9997
2 26931  67.0488 143.9250 0006008 275.3855  84.6561 14.31731731236214
SO-50
1 27607U 02058C   25154.61292979  .00001693  00000-0  22775-3 0  9994
2 27607  64.5523 218.9540 0055670 335.4013  24.4438 14.81613241208343
CO-55
1 27844U 03031E   25154.49648060  .00000491  00000-0  23272-3 0  9999
2 27844  98.6755 162.8487 0009150 198.0707 162.0148 14.23992846137775
CO-57
1 27848U 03031J   25153.94996073  .00000364  00000-0  17989-3 0  9999
2 27848  98.6784 162.3201 0008704 218.1851 141.8711 14.23327106137422
RS-22
1 27939U 03042A   25154.83962252  .00001508  00000-0  24654-3 0  9991
2 27939  98.3278 324.1528 0012083  34.1213  99.8906 14.72343259159985
NOAA-18
1 28654U 05018A   25154.81809810  .00000231  00000-0  14581-3 0  9999
2 28654  98.8422 234.3591 0015009 142.7346 217.4871 14.13608484 32935
CO-58
1 28895U 05043F   25154.87242996  .00002169  00000-0  36155-3 0  9999
2 28895  98.2491 299.1515 0013661 329.5584  30.4827 14.71000433 46335
CO-65
1 32785U 08021C   25154.55249223  .00008049  00000-0  58054-3 0  9991
2 32785  97.7831 125.6716 0008512 226.5440 133.5078 15.04377686928170
CO-66
1 32791U 08021J   25154.83949708  .00016233  00000-0  78704-3 0  9992
2 32791  97.7271 134.7530 0004167 157.8946 202.2468 15.18594241929709
RS-30
1 32953U 08025A   25154.84896280  .00000009  00000-0 -10697-4 0  9996
2 32953  82.5036 230.7405 0020230  61.2406 299.0703 12.43164866772822
NOAA-19
1 33591U 09005A   25154.82362450  .00000221  00000-0  14198-3 0  9993
2 33591  98.9974 219.4958 0014058  24.8224 335.3621 14.13371624841296
SRMSAT
1 37841U 11058D   25154.44283689  .00000445  00000-0  97915-4 0  9997
2 37841  19.9701 191.6890 0011795 358.4445  47.0577 14.11434327704249
ZACUBE-1
1 39417U 13066B   25154.76959218  .00009386  00000-0  81083-3 0  9993
2 39417  97.7799 111.8131 0046316  72.3137 288.3133 14.96606190624049
Delfi-N3xt
1 39428U 13066N   25154.51074394  .00015650  00000-0  15839-2 0  9997
2 39428  97.8348  72.2284 0085767  21.7876 338.6953 14.88306070618173
GOMX-1
1 39430U 13066Q   25154.82705327  .00002548  00000-0  40146-3 0  9993
2 39430  97.6845  13.8449 0131665 210.3136 149.0409 14.67618241614566
LO-74
1 39440U 13066AA  25154.56603790  .00005418  00000-0  54938-3 0  9999
2 39440  97.8488  99.1682 0061427 198.5773 161.3202 14.89903062620545
AO-73
1 39444U 13066AE  25154.35262224  .00012108  00000-0  90250-3 0  9994
2 39444  97.7835 116.2424 0044118  50.3525 310.1579 15.02254106622656
DTUSAT-2
1 40030U 14033W   25154.45284290  .00010554  00000-0  68539-3 0  9998
2 40030  98.0549 125.9755 0011149  82.6385 277.6108 15.08193768595475
EO-80
1 40032U 14033Y   25154.40713908  .00011190  00000-0  72509-3 0  9997
2 40032  98.0424 125.5910 0009363  31.4909 328.6877 15.08272070595448
LILACSAT-2
1 40908U 15049K   25154.82224858  .00015411  00000-0  40303-3 0  9991
2 40908  97.5062 175.0302 0009695 169.5591 190.5857 15.38796216537340
IO-86
1 40931U 15052B   25151.18580782  .00001310  00000-0  87238-4 0  9990
2 40931   6.0001  24.1284 0012872 339.0660  20.8941 14.78806187523154
Horyu-4
1 41340U 16012D   25154.37229619  .00032583  00000-0  87637-3 0  9993
2 41340  30.9951 173.6778 0006106 348.1009  11.9492 15.36647446511838
Lapan A3
1 41603U 16040E   25154.87539986  .00003694  00000-0  13028-3 0  9996
2 41603  97.1369 159.7073 0009158 293.9068  66.1213 15.29824497496912
CAS-2T
1 41847U 16066G   25154.78981239  .00002383  00000-0  34738-3 0  9991
2 41847  98.4196 229.3033 0345929 195.8231 163.1933 14.43462242450182
CAS-4B
1 42759U 17034B   25154.84428878  .00087451  00000-0  93281-3 0  9999
2 42759  43.0080 356.0517 0021342 253.2960 106.5563 15.62676112441709
CAS-4A
1 42761U 17034D   25154.88201181  .00093618  00000-0  94887-3 0  9997
2 42761  43.0120 353.0444 0022704 257.5640 102.2684 15.63904654441734
TechnoSat
1 42829U 17042E   25154.51357184  .00004701  00000-0  36535-3 0  9997
2 42829  97.3914 323.5196 0012863 298.9641  61.0294 15.01692698429811
AO-91
1 43017U 17073E   25154.60795654  .00014399  00000-0  73660-3 0  9993
2 43017  97.5242  25.5329 0172688 186.4850 173.4143 15.04624058408310
S-Net D
1 43186U 18014G   25154.27713825  .00008336  00000-0  49182-3 0  9995
2 43186  97.5630  57.2473 0007515 242.1225 117.9244 15.11776130401429
S-Net B
1 43187U 18014H   25154.61339874  .00009851  00000-0  58052-3 0  9991
2 43187  97.5635  57.5519 0008301 235.9078 124.1365 15.11763454401473
S-Net A
1 43188U 18014J   25154.80705167  .00007545  00000-0  44539-3 0  9998
2 43188  97.5644  57.8926 0008152 235.4634 124.5827 15.11788296401508
S-Net C
1 43189U 18014K   25154.48339398  .00009167  00000-0  54049-3 0  9991
2 43189  97.5657  57.5855 0009807 229.2227 130.8153 15.11756673400008
Ten-Koh
1 43677U 18084G   25154.46101943  .00003584  00000-0  28915-3 0  9991
2 43677  98.0877 326.4749 0005062 286.3178  73.7487 15.00553432359327
PO-101
1 43678U 18084H   25154.84537702  .00003527  00000-0  30145-3 0  9995
2 43678  98.1054 330.7506 0006659 317.4342  42.6362 14.98322916359523
QO-100
1 43700U 18090A   25154.58857637  .00000146  00000-0  00000-0 0  9999
2 43700   0.0170 352.3964 0002085 114.1212  23.4285  1.00271300 23882
MinXSS-2
1 43758U 18099A   25154.42713407  .00025706  00000-0  10115-2 0  9999
2 43758  97.5016 220.4431 0012645 170.5181 189.6298 15.25549430356032
AO-95
1 43770U 18099N   25154.58101477  .00017655  00000-0  89078-3 0  9997
2 43770  97.4914 212.7328 0009706 225.8168 134.2268 15.17142637355642
RANGE-A
1 43773U 18099R   25154.36764343  .00006764  00000-0  43068-3 0  9991
2 43773  97.4480 202.9500 0010681 205.3978 154.6727 15.09037407355287
MOVE-II
1 43780U 18099Y   25154.24051774  .00331375  00000-0  22734-2 0  9998
2 43780  97.4650 229.3895 0006320 191.6654 168.4464 15.73734632356802
SNUSat 2
1 43782U 18099AA  25154.59441938  .00014489  00000-0  78713-3 0  9996
2 43782  97.4598 209.5469 0012699 167.0595 193.0965 15.14541771355599
SnugLite
1 43784U 18099AC  25154.41480536  .00015158  00000-0  75914-3 0  9990
2 43784  97.4414 208.9184 0004347 153.5921 206.5535 15.17468370355701
ITASat 1
1 43786U 18099AE  25154.65931746  .00010633  00000-0  60647-3 0  9992
2 43786  97.4566 209.1380 0013345 220.9508 139.0722 15.12871056355566
EAGLET 1
1 43790U 18099AJ  25154.58257098  .00007082  00000-0  45100-3 0  9991
2 43790  97.4760 209.0397 0011548 203.0775 156.9937 15.09009916355161
ESEO
1 43792U 18099AL  25154.60825441  .00003551  00000-0  27062-3 0  9993
2 43792  97.4488 202.4045 0012982 179.0020 181.1234 15.02602998354920
CSIM
1 43793U 18099AM  25154.79607494  .00250355  00000-0  17956-2 0  9996
2 43793  97.4802 232.2420 0006093 177.1370 182.9930 15.72916457356730
JO-97
1 43803U 18099AX  25154.13623806  .00015175  00000-0  69205-3 0  9995
2 43803  97.4663 213.2707 0008481 157.1936 202.9677 15.20697762355797
Suomi 100
1 43804U 18099AY  25154.66758627  .00018614  00000-0  90752-3 0  9996
2 43804  97.4728 213.1105 0013226 161.8216 198.3493 15.18293475355803
ISAT
1 43879U 18111D   25154.47709428  .00036897  00000-0  12787-2 0  9991
2 43879  97.5959  68.7355 0007572 205.5710 154.5157 15.29711592352765
UWE-4
1 43880U 18111E   25154.50695119  .00027229  00000-0  10651-2 0  9995
2 43880  97.5904  67.2870 0010424 224.9494 135.0900 15.25759831350703
Sparrow
1 43881U 18111F   25154.07179809  .00032596  00000-0  10905-2 0  9996
2 43881  97.6101  71.1737 0004639 255.3196 104.7530 15.30901874352793
Prox-1
1 44339U 19036A   25154.54939984  .00020435  00000-0  26109-2 0  9994
2 44339  23.9963 101.4045 0006939   5.9909 354.0670 14.79858558317210
SONATE
1 44400U 19038Q   25154.61086859  .00403442  64130-4  12540-2 0  9992
2 44400  97.6871 180.8284 0005679 212.1135 147.9793 15.91568540328620
